Starlink 4255

operational
NORAD ID: 53003 Int'l Des: 2022-076 Owner: SPXS Country: US Constellation: starlink
LEOCIRCULAR

Über Starlink 4255

Beschreibung wird geladen...

Live-Position

3D-Globus wird geladen...

Nächste Überflüge

Höhenverlauf

Altitude vs Time

uPlot chart will show altitude changes over time

Zweizeiliger Elementsatz

1 53003U 22076T 25259.98216605 -.00001405 00000-0 -70227-4 0 9992
2 53003 53.2173 153.9230 0001546 98.6910 261.4257 15.08830210176623
Epoch: 16. Sept. 2025 • Age: 16 hours

Aktueller Status

Höhe 541.9 km
Geschwindigkeit 7.60 km/s
Subsatellitenpunkt 37.56°N, 58.44°E
Startdatum 7. Juli 2022
Alter 3.1 years
Typ internet

Technische Details

Klassifizierung Payload
Masse 297.00 kg
Trockenmasse 275.00 kg
Gesamtmasse 297.00 kg
Länge 0.20 m
Durchmesser 2.80 m
Spannweite 9.00 m
Form Box + pan
Hersteller SPXS
Bus-Typ Starlink
Phasenstatus In Orbit
Besitzer/Staat SPXS/US

Große Konstellationen

Loading constellations...